Terminal Aerodrome Forecast
Issued by NWS Dallas/Fort Worth, TX

Home | Current Version | Previous Version | Text Only | Print | Product List | Glossary On
Versions: 1 2 3 4 5 6 7 8 9 10 11 12 13 14 15 16 17 18 19 20 21 22 23 24 25 26
000
FTUS44 KFWD 191501 AAA
TAFACT
TAF AMD
KACT 191501Z 1915/2012 18014KT P6SM SCT030
      TEMPO 1915/1917 BKN018
     FM201000 18011KT P6SM BKN010=

USA.gov is the U.S. government's official web portal to all federal, state and local government web resources and services.